Location: Les Jeannots
(43.2262°N, 5.5774°E)
Time: 08:33:53
(UTC+00:00)

Cosmos 2151 - Pass Details

Date: 05 July 2020
Orbit: 580 x 602 km, 82.5° (Epoch: 04 August)

Event Time Altitude Azimuth Distance (km) Brightness Sun altitude
Exits shadow 23:23:51 36° 267° (W) 965 4.0 -24.0°
Maximum altitude 23:24:21 37° 284° (WNW) 940 4.1 -24.0°
Drops below altitude 10° 23:28:21 10° 352° (N) 1,941 6.7 -24.0°
Sets 23:30:42 0° 1° (N) 2,844 7.9 -24.1°
